Cadillac, MI

5:46 AM EDT on March 23, 2017 (GMT -0400)
Wexford County

Weather History for KCAD - September, 2012

Change the Weather History Date:

Thursday, September 13, 2012

  Actual Average Record
Temperature  
Mean Temperature 59 °F -  
Max Temperature 65 °F 70 °F 91 °F (1952)
Min Temperature 52 °F 49 °F 26 °F (1955)
Degree Days  
Heating Degree Days 6    
Growing Degree Days 9 (Base 50)    
Moisture  
Dew Point 51 °F    
Average Humidity 80    
Maximum Humidity 91    
Minimum Humidity 58    
Precipitation  
Precipitation 0.00 in - - ()
Sea Level Pressure  
Sea Level Pressure 30.23 in    
Wind  
Wind Speed 3 mph (NNW)    
Max Wind Speed 12 mph    
Max Gust Speed 18 mph    
Visibility 10 miles    
Events Rain    
Averages and records for this station are not official NWS values.
T = Trace of Precipitation, MM = Missing Value Source: NWS Daily Summary

Daily Weather History Graph

Daily Weather History Graph

Search for Another Location

Airport or City:

Trip Planner

Search our weather history database for the weather conditions in past years. The results will help you decide how hot, cold, wet, or windy it might be!

Date:

Astronomy

Sep. 13, 2012 Rise Set
Actual Time 7:18 AM EDT 7:55 PM EDT
Civil Twilight 6:49 AM EDT 8:24 PM EDT
Nautical Twilight 6:15 AM EDT 8:58 PM EDT
Astronomical Twilight 5:39 AM EDT 9:34 PM EDT
Moon 4:33 AM EDT (9/13) 6:20 PM EDT (9/13)
Length of Visible Light 13h 34m
Length of Day
12h 36m
Waning Crescent, 7% of the Moon is Illuminated
Sep 13
Waning Crescent
Sep 15
New
Sep 22
First Quarter
Sep 29
Full
Oct 8
Last Quarter

Hourly Weather History & Observations

Time (EDT) Temp. Dew Point Humidity Pressure Visibility Wind Dir Wind Speed Gust Speed Precip Events Conditions
12:14 AM 61.7 °F 54.3 °F 77% 30.17 in 10.0 mi Calm Calm - N/A   Clear
12:34 AM 59.0 °F 53.8 °F 83% 30.16 in 10.0 mi Calm Calm - N/A   Clear
12:54 AM 57.7 °F 53.4 °F 85% 30.17 in 10.0 mi NNW 5.8 mph - N/A   Clear
1:14 AM 56.5 °F 52.7 °F 87% 30.16 in 10.0 mi Calm Calm - N/A   Clear
1:34 AM 56.8 °F 52.9 °F 87% 30.16 in 10.0 mi Calm Calm - N/A   Scattered Clouds
1:54 AM 56.5 °F 52.2 °F 85% 30.16 in 10.0 mi Calm Calm - N/A   Scattered Clouds
2:14 AM 56.5 °F 53.1 °F 88% 30.16 in 10.0 mi Calm Calm - N/A   Scattered Clouds
2:34 AM 56.5 °F 53.2 °F 89% 30.16 in 10.0 mi Calm Calm - N/A   Clear
2:54 AM 56.5 °F 53.2 °F 89% 30.16 in 10.0 mi Calm Calm - N/A   Scattered Clouds
3:14 AM 56.5 °F 53.6 °F 90% 30.15 in 10.0 mi Calm Calm - N/A   Scattered Clouds
3:34 AM 56.5 °F 53.6 °F 90% 30.15 in 10.0 mi Calm Calm - N/A   Mostly Cloudy
3:54 AM 56.1 °F 53.2 °F 90% 30.15 in 5.0 mi Calm Calm - N/A   Scattered Clouds
4:34 AM 54.9 °F 52.0 °F 90% 30.16 in 10.0 mi NW 5.8 mph - N/A   Mostly Cloudy
4:54 AM 56.5 °F 53.8 °F 91% 30.16 in 5.0 mi NW 5.8 mph - N/A   Scattered Clouds
5:15 AM 56.5 °F 53.6 °F 90% 30.16 in 10.0 mi Calm Calm - N/A   Scattered Clouds
5:34 AM 56.5 °F 52.9 °F 88% 30.16 in 10.0 mi Calm Calm - N/A   Scattered Clouds
5:54 AM 56.5 °F 52.7 °F 87% 30.17 in 10.0 mi Calm Calm - N/A   Scattered Clouds
6:15 AM 56.5 °F 51.4 °F 83% 30.17 in 10.0 mi NW 4.6 mph - N/A   Scattered Clouds
6:34 AM 56.5 °F 51.8 °F 84% 30.18 in 10.0 mi NNW 4.6 mph - N/A   Mostly Cloudy
6:54 AM 56.5 °F 52.2 °F 85% 30.18 in 10.0 mi NNW 3.5 mph - N/A   Mostly Cloudy
7:15 AM 56.5 °F 52.2 °F 85% 30.19 in 10.0 mi NNW 3.5 mph - N/A   Mostly Cloudy
7:34 AM 56.5 °F 52.2 °F 85% 30.20 in 10.0 mi NNW 4.6 mph - N/A   Scattered Clouds
7:54 AM 56.5 °F 52.2 °F 85% 30.20 in 10.0 mi NNW 4.6 mph - N/A   Clear
8:15 AM 59.0 °F 54.7 °F 86% 30.20 in 10.0 mi NNW 5.8 mph - N/A   Mostly Cloudy
8:34 AM 59.0 °F 53.4 °F 82% 30.21 in 10.0 mi NNW 8.1 mph - N/A   Overcast
8:54 AM 59.9 °F 50.4 °F 71% 30.22 in 10.0 mi NNW 8.1 mph - N/A   Mostly Cloudy
9:14 AM 61.7 °F 48.7 °F 62% 30.22 in 10.0 mi NNW 9.2 mph - N/A   Mostly Cloudy
9:34 AM 61.7 °F 48.9 °F 63% 30.22 in 10.0 mi North 5.8 mph - N/A   Scattered Clouds
9:54 AM 62.6 °F 48.6 °F 60% 30.22 in 10.0 mi North 5.8 mph - N/A   Clear
10:14 AM 62.8 °F 49.3 °F 61% 30.23 in 10.0 mi North 9.2 mph 17.3 mph N/A   Clear
10:34 AM 64.0 °F 49.6 °F 59% 30.23 in 10.0 mi NNW 9.2 mph - N/A   Scattered Clouds
10:54 AM 64.0 °F 49.3 °F 59% 30.24 in 10.0 mi North 11.5 mph 16.1 mph N/A   Scattered Clouds
11:14 AM 63.5 °F 48.6 °F 58% 30.25 in 10.0 mi North 8.1 mph - N/A   Mostly Cloudy
11:34 AM 64.4 °F 49.3 °F 58% 30.24 in 10.0 mi NNW 10.4 mph - N/A   Scattered Clouds
11:54 AM 64.8 °F 49.8 °F 58% 30.24 in 10.0 mi NW 9.2 mph 18.4 mph N/A   Scattered Clouds
12:14 PM 65.5 °F 50.5 °F 58% 30.24 in 10.0 mi NNW 8.1 mph - N/A   Scattered Clouds
12:34 PM 64.2 °F 50.4 °F 61% 30.24 in 10.0 mi NNW 8.1 mph - N/A   Overcast
12:54 PM 63.3 °F 50.5 °F 63% 30.25 in 10.0 mi NNW 9.2 mph - N/A   Overcast
1:14 PM 61.7 °F 50.0 °F 65% 30.25 in 10.0 mi NNW 9.2 mph - N/A   Overcast
1:34 PM 61.7 °F 50.9 °F 68% 30.26 in 10.0 mi NNW 6.9 mph - N/A   Overcast
1:54 PM 59.0 °F 50.9 °F 74% 30.27 in 10.0 mi NNW 6.9 mph - N/A   Drizzle
2:14 PM 59.0 °F 53.1 °F 81% 30.27 in 10.0 mi NNW 3.5 mph - N/A   Light Drizzle
2:34 PM 59.0 °F 53.2 °F 81% 30.26 in 10.0 mi NNW 4.6 mph - N/A   Drizzle
2:54 PM 59.0 °F 52.7 °F 80% 30.27 in 10.0 mi NW 5.8 mph - N/A   Overcast
3:14 PM 59.0 °F 52.2 °F 78% 30.26 in 10.0 mi NNW 4.6 mph - N/A   Overcast
3:35 PM 59.0 °F 52.7 °F 80% 30.27 in 10.0 mi NW 3.5 mph - N/A Rain Light Rain
3:54 PM 59.0 °F 52.0 °F 78% 30.26 in 10.0 mi Calm Calm - N/A Rain Light Rain
4:14 PM 56.5 °F 51.1 °F 82% 30.26 in 5.0 mi NNW 6.9 mph - N/A   Drizzle
4:35 PM 56.5 °F 51.3 °F 83% 30.27 in 10.0 mi North 3.5 mph - N/A Rain Rain
4:54 PM 56.5 °F 48.9 °F 76% 30.27 in 10.0 mi North 3.5 mph - N/A   Drizzle
5:14 PM 56.5 °F 48.9 °F 76% 30.26 in 10.0 mi Calm Calm - N/A   Overcast
5:35 PM 56.5 °F 50.2 °F 79% 30.26 in 10.0 mi Calm Calm - N/A   Drizzle
5:54 PM 56.5 °F 49.8 °F 78% 30.26 in 10.0 mi Calm Calm - N/A Rain Light Rain
6:14 PM 56.5 °F 49.8 °F 78% 30.27 in 10.0 mi Calm Calm - N/A Rain Light Rain
6:35 PM 56.5 °F 51.8 °F 84% 30.26 in 10.0 mi Calm Calm - N/A Rain Light Rain
6:54 PM 55.9 °F 52.0 °F 87% 30.27 in 10.0 mi Calm Calm - N/A Rain Rain
7:14 PM 54.5 °F 50.9 °F 88% 30.27 in 10.0 mi WNW 4.6 mph - N/A Rain Light Rain
7:34 PM 56.5 °F 53.1 °F 88% 30.27 in 10.0 mi Calm Calm - N/A Rain Light Rain
7:54 PM 54.1 °F 50.5 °F 88% 30.27 in 10.0 mi Calm Calm - N/A Rain Light Rain
8:14 PM 54.0 °F 50.0 °F 86% 30.26 in 10.0 mi Calm Calm - N/A   Overcast
8:34 PM 54.0 °F 50.4 °F 88% 30.27 in 10.0 mi Calm Calm - N/A   Overcast
8:54 PM 54.0 °F 50.4 °F 88% 30.26 in 10.0 mi Calm Calm - N/A   Overcast
9:14 PM 54.0 °F 50.9 °F 89% 30.27 in 10.0 mi Calm Calm - N/A   Overcast
9:34 PM 54.0 °F 50.9 °F 89% 30.28 in 10.0 mi Calm Calm - N/A   Overcast
9:54 PM 54.0 °F 50.9 °F 89% 30.27 in 10.0 mi SSE 3.5 mph - N/A   Overcast
10:14 PM 54.0 °F 50.9 °F 89% 30.28 in 10.0 mi Calm Calm - N/A   Overcast
10:34 PM 54.0 °F 50.5 °F 88% 30.27 in 10.0 mi Calm Calm - N/A   Overcast
10:54 PM 54.0 °F 50.9 °F 89% 30.28 in 10.0 mi Calm Calm - N/A   Overcast
11:15 PM 54.0 °F 50.9 °F 89% 30.29 in 10.0 mi Calm Calm - N/A   Mostly Cloudy
11:34 PM 53.4 °F 49.8 °F 88% 30.29 in 10.0 mi Calm Calm - N/A   Overcast
11:54 PM 52.7 °F 49.6 °F 89% 30.29 in 10.0 mi Calm Calm - N/A   Overcast